Date String (YYYY-MM-DD hh:mm:ss) UTC,Instrument flags,Ambient pressure (hPa),Sample flow (lpm),Bypass flow (lpm),Sample temperature (°C),Ambient temperature (°C),ASC tube jacket temperature (°C),LED temperature (°C),Box temperature (°C),Sample RH (%),Span deviation,Mass concentration (μg/m³),Mass concentration (μg/m³),Mass concentration (μg/m³)
DateTimeUTC,F1_M11,P_M11,Q1_M11,Q2_M11,T1_M11,T2_M11,T3_M11,T4_M11,T5_M11,U1_M11,ZSPAN_M11,X2_M11,X0_M11,X1_M11
2022-07-26 17:00:00,,0829.5,4.99,0.00,30.1,27.1,00.0,38.5,31.3,34.9,0000.0,0007.64,0016.03,0006.64
2022-07-26 17:01:00,,0829.5,4.99,0.00,30.2,27.2,00.0,38.5,31.3,35.4,0000.0,0007.66,0016.61,0006.65
2022-07-26 17:02:00,,0829.5,5.00,0.00,30.4,27.4,00.0,38.5,31.5,34.6,0000.0,0007.68,0016.86,0006.65
2022-07-26 17:03:00,,0829.5,5.00,0.00,30.6,27.6,00.0,38.6,31.6,33.9,0000.0,0007.66,0016.24,0006.63
2022-07-26 17:04:00,,0829.5,5.00,0.00,30.7,27.8,00.0,38.6,31.6,32.6,0000.0,0007.69,0015.40,0006.61
2022-07-26 17:05:00,,0829.5,5.01,0.00,30.8,27.9,00.0,38.6,31.7,33.1,0000.0,0007.71,0015.97,0006.59
2022-07-26 17:06:00,,0829.5,5.00,0.00,30.9,28.1,00.0,38.7,31.7,32.8,0000.0,0007.71,0015.35,0006.59
2022-07-26 17:07:00,,0829.5,5.00,0.00,30.9,28.3,00.0,38.8,31.7,32.2,0000.0,0007.70,0015.75,0006.58
2022-07-26 17:08:00,,0829.5,5.00,0.00,30.9,28.1,00.0,38.8,31.7,31.8,0000.0,0007.70,0016.50,0006.58
2022-07-26 17:09:00,,0829.4,5.01,0.00,30.8,27.5,00.0,38.8,31.7,31.9,0000.0,0007.69,0017.21,0006.58
2022-07-26 17:10:00,,0829.5,5.00,0.00,30.8,27.2,00.0,38.8,31.6,33.0,0000.0,0007.66,0017.26,0006.58
2022-07-26 17:11:00,,0829.5,5.01,0.00,30.7,27.1,00.0,38.8,31.4,33.4,0000.0,0007.71,0017.39,0006.59
2022-07-26 17:12:00,,0829.5,5.01,0.00,30.6,27.2,00.0,38.8,31.4,33.0,0000.0,0007.73,0016.89,0006.61
2022-07-26 17:13:00,,0829.5,4.99,0.00,30.5,27.4,00.0,38.8,31.4,33.4,0000.0,0007.76,0016.79,0006.65
2022-07-26 17:14:00,,0829.5,5.00,0.00,30.5,27.6,00.0,38.8,31.5,33.7,0000.0,0007.77,0017.54,0006.68
2022-07-26 17:15:00,,0829.5,5.00,0.00,30.5,27.8,00.0,38.8,31.5,34.4,0000.0,0007.75,0017.41,0006.71
2022-07-26 17:16:00,,0829.5,5.00,0.00,30.5,28.0,00.0,38.9,31.6,33.4,0000.0,0007.80,0017.39,0006.76
2022-07-26 17:17:00,,0829.5,5.00,0.00,30.5,28.2,00.0,38.9,31.6,34.0,0000.0,0007.82,0017.46,0006.79
2022-07-26 17:18:00,,0829.5,5.00,0.00,30.5,28.1,00.0,38.9,31.7,33.1,0000.0,0007.88,0017.17,0006.83
2022-07-26 17:19:00,,0829.5,5.00,0.00,30.4,27.5,00.0,38.8,31.6,33.7,0000.0,0007.91,0016.52,0006.86
2022-07-26 17:20:00,,0829.5,5.00,0.00,30.4,27.1,00.0,38.7,31.5,33.8,0000.0,0007.96,0016.70,0006.90
2022-07-26 17:21:00,,0829.5,5.00,0.00,30.3,27.0,00.0,38.7,31.4,33.5,0000.0,0007.99,0016.33,0006.92
2022-07-26 17:22:00,,0829.4,5.01,0.00,30.2,27.1,00.0,38.7,31.3,33.4,0000.0,0007.94,0016.29,0006.94
2022-07-26 17:23:00,,0829.5,5.00,0.00,30.1,27.3,00.0,38.7,31.3,33.7,0000.0,0007.97,0016.27,0006.95
2022-07-26 17:24:00,,0829.5,5.00,0.00,30.1,27.5,00.0,38.7,31.3,32.8,0000.0,0007.95,0016.17,0006.97
2022-07-26 17:25:00,,0829.4,5.00,0.00,30.1,27.7,00.0,38.7,31.4,32.9,0000.0,0007.99,0015.74,0007.00
2022-07-26 17:26:00,,0829.4,4.99,0.00,30.1,27.9,00.0,38.7,31.5,32.9,0000.0,0008.03,0015.43,0007.03
2022-07-26 17:27:00,,0829.4,5.00,0.00,30.1,28.1,00.0,38.7,31.5,32.8,0000.0,0008.00,0014.97,0007.01
2022-07-26 17:28:00,,0829.3,5.00,0.00,30.1,28.2,00.0,38.7,31.6,32.7,0000.0,0007.96,0015.17,0006.99
2022-07-26 17:29:00,,0829.3,5.00,0.00,30.1,28.2,00.0,38.7,31.6,33.0,0000.0,0007.92,0015.11,0006.99
2022-07-26 17:30:00,,0829.3,5.00,0.00,30.1,27.7,00.0,38.6,31.6,33.2,0000.0,0007.91,0014.82,0007.00
2022-07-26 17:31:00,,0829.3,5.01,0.00,30.0,27.2,00.0,38.6,31.4,33.1,0000.0,0007.92,0014.03,0007.00
2022-07-26 17:32:00,,0829.3,4.99,0.00,30.0,27.1,00.0,38.5,31.4,33.1,0000.0,0007.94,0013.80,0007.01
2022-07-26 17:33:00,,0829.4,5.00,0.00,29.9,27.2,00.0,38.5,31.3,33.0,0000.0,0007.97,0013.72,0007.01
2022-07-26 17:34:00,,0829.3,5.00,0.00,29.9,27.3,00.0,38.5,31.2,33.2,0000.0,0007.96,0013.64,0007.01
2022-07-26 17:35:00,,0829.3,5.00,0.00,29.8,27.5,00.0,38.5,31.3,33.2,0000.0,0007.97,0013.29,0007.00
2022-07-26 17:36:00,,0829.3,4.99,0.00,29.8,27.7,00.0,38.5,31.3,33.8,0000.0,0007.96,0012.88,0007.00
2022-07-26 17:37:00,,0829.4,5.00,0.00,29.8,27.9,00.0,38.5,31.4,32.9,0000.0,0007.96,0012.87,0007.00
2022-07-26 17:38:00,,0829.3,5.00,0.00,29.8,28.1,00.0,38.5,31.4,33.1,0000.0,0007.98,0013.04,0007.02
2022-07-26 17:39:00,,0829.3,5.00,0.00,29.9,28.2,00.0,38.5,31.5,33.0,0000.0,0008.04,0013.00,0007.04
2022-07-26 17:40:00,,0829.3,5.00,0.00,29.9,28.1,00.0,38.5,31.5,32.0,0000.0,0008.11,0013.34,0007.04
2022-07-26 17:41:00,,0829.2,4.99,0.00,29.8,27.5,00.0,38.4,31.4,32.6,0000.0,0008.11,0013.32,0007.04
2022-07-26 17:42:00,,0829.2,5.00,0.00,29.8,27.2,00.0,38.4,31.4,33.8,0000.0,0008.10,0013.46,0007.04
2022-07-26 17:43:00,,0829.3,5.00,0.00,29.7,27.1,00.0,38.4,31.3,33.2,0000.0,0008.09,0013.54,0007.04
2022-07-26 17:44:00,,0829.3,5.00,0.00,29.7,27.2,00.0,38.3,31.2,33.1,0000.0,0008.09,0013.54,0007.05
2022-07-26 17:45:00,,0829.3,5.00,0.00,29.6,27.4,00.0,38.3,31.2,33.3,0000.0,0008.10,0014.30,0007.07
2022-07-26 17:46:00,,0829.3,5.00,0.00,29.6,27.6,00.0,38.3,31.2,32.8,0000.0,0008.13,0014.44,0007.08
2022-07-26 17:47:00,,0829.4,5.00,0.00,29.7,27.8,00.0,38.3,31.3,33.0,0000.0,0008.12,0014.40,0007.10
2022-07-26 17:48:00,,0829.4,5.00,0.00,29.7,28.0,00.0,38.3,31.3,33.3,0000.0,0008.12,0014.43,0007.09
2022-07-26 17:49:00,,0829.4,4.99,0.00,29.7,28.1,00.0,38.3,31.4,33.3,0000.0,0008.14,0014.67,0007.10
2022-07-26 17:50:00,,0829.4,5.00,0.00,29.7,28.2,00.0,38.3,31.5,33.1,0000.0,0008.12,0014.92,0007.11
2022-07-26 17:51:00,,0829.3,5.00,0.00,29.7,27.9,00.0,38.3,31.4,33.4,0000.0,0008.11,0014.54,0007.13
2022-07-26 17:52:00,,0829.3,5.00,0.00,29.7,27.3,00.0,38.3,31.3,32.5,0000.0,0008.13,0015.12,0007.14
2022-07-26 17:53:00,,0829.4,4.99,0.00,29.6,27.1,00.0,38.2,31.3,32.9,0000.0,0008.15,0015.06,0007.15
2022-07-26 17:54:00,,0829.5,4.99,0.00,29.6,27.1,00.0,38.2,31.1,33.4,0000.0,0008.12,0015.34,0007.15
2022-07-26 17:55:00,,0829.5,5.00,0.00,29.5,27.3,00.0,38.2,31.1,33.3,0000.0,0008.07,0015.06,0007.16
2022-07-26 17:56:00,,0829.4,5.00,0.00,29.5,27.4,00.0,38.2,31.1,32.5,0000.0,0008.09,0014.51,0007.16
2022-07-26 17:57:00,,0829.4,5.01,0.00,29.5,27.6,00.0,38.2,31.2,33.1,0000.0,0008.10,0014.78,0007.17
2022-07-26 17:58:00,,0829.4,5.01,0.00,29.5,27.8,00.0,38.2,31.3,32.2,0000.0,0008.09,0014.97,0007.16
2022-07-26 17:59:00,,0829.3,5.00,0.00,29.5,28.0,00.0,38.2,31.3,31.3,0000.0,0008.09,0015.19,0007.15
